[[{"header":{"parameterUnit":"m.s-1","parameterCategory":1,"la1":30.2991,"la2":30.254,"lo1":-89.0895,"lo2":-89.0444,"dy":0.0017,"dx":0.0017,"nx":28,"ny":28,"refTime":"2024-02-07T03:00:00:Z","depth":0,"parameterNumber":2,"parameterNumberName":"U-component_of_WINDS"},"data":[0,0,0,0,0,0,0,0,0,0,0,0,0,0,0,0,0,0,0,0,0,0,0,0,0,0,0,0,0,0,0,0,0,0,0,0,0,0,0,0,0,0,0,0,0,0,0,0,0,0,0,0,0,0,0,0,0,0,1.1634,1.1634,0,1.1636,1.1636,1.1636,1.1612,1.1611,1.1611,1.161,1.1611,1.1612,1.1613,0,0,0,0,0,0,0,0,0,0,0,0,0,1.161,1.1611,1.1634,1.1634,1.1634,1.1636,1.1636,1.1636,1.1612,1.1611,1.1611,1.161,1.1611,1.1612,1.1613,0,0,0,0,0,0,0,0,0,0,0,0,0,1.1617,1.1611,1.1634,1.1623,1.1622,1.1636,1.1636,1.1636,1.1612,1.1611,1.161,1.1609,1.1611,1.1612,1.1613,1.1639,0,0,1.1616,1.1616,0,0,0,0,0,0,0,0,1.1617,1.1618,1.1624,1.1623,1.1622,1.1623,1.1628,1.1637,1.1613,1.1616,1.161,1.1609,1.1616,1.1617,1.1619,1.1639,1.1639,1.1616,1.1617,1.1617,1.1617,0,0,0,0,0,0,0,1.1617,1.1618,1.1635,1.1624,1.1623,1.1617,1.1617,1.163,1.1621,1.1616,1.1614,1.1614,1.1615,1.1618,1.1619,1.1639,1.1616,1.1617,1.1617,1.1618,1.1682,1.1683,0,0,0,0,0,0,1.1618,1.1618,1.1635,1.1635,1.1617,1.1619,1.1619,1.1624,1.1621,1.162,1.1615,1.1613,1.1617,1.1618,1.1619,1.165,1.1617,1.1618,1.1618,1.1681,1.1682,1.1683,0,0,0,0,0,0,1.1617,1.1619,1.1635,1.1626,1.1628,1.162,1.1626,1.1624,1.1627,1.1621,1.1619,1.162,1.1616,1.1617,1.1634,1.165,1.1618,1.1619,1.1679,1.1681,1.1683,1.1712,0,0,0,0,0,0,1.1617,1.1619,1.1629,1.1626,1.1628,1.165,1.1627,1.1625,1.1629,1.1626,1.1625,1.1624,1.1616,1.1633,1.1635,1.1651,1.162,1.1678,1.168,1.1682,1.171,1.1715,1.1719,0,0,0,0,0,1.1616,1.1637,1.163,1.1632,1.164,1.1651,1.1652,1.1643,1.163,1.164,1.1636,1.1624,1.1648,1.1635,1.1637,1.1653,1.1677,1.168,1.1682,1.1708,1.1714,1.1719,0,0,0,0,0,0,1.164,1.1636,1.1628,1.1649,1.1651,1.1647,1.1659,1.1649,1.1655,1.1652,1.164,1.164,1.1659,1.1658,1.1644,1.1679,1.166,1.1663,1.1679,1.1685,1.1689,1.1689,1.1621,0,0,0,0,0,1.1648,1.1658,1.1654,1.1672,1.1674,1.1667,1.1671,1.1664,1.1665,1.1666,1.1663,1.1665,1.1673,1.1679,1.1686,1.171,1.171,1.1722,1.1726,1.173,1.1733,1.1747,1.1753,1.1691,1.1691,1.1691,0,0,1.1665,1.1663,1.167,1.1677,1.1678,1.1689,1.1667,1.1679,1.1687,1.1667,1.1684,1.1682,1.1683,1.1705,1.1714,1.1704,1.175,1.1733,1.1736,1.1737,1.175,1.1756,1.1761,1.1693,1.1693,1.1693,0,0,1.17,1.17,1.1716,1.1717,1.1719,1.1714,1.1718,1.1717,1.1715,1.1731,1.1718,1.1727,1.1741,1.1743,1.1746,1.1784,1.1773,1.1786,1.181,1.1824,1.1829,1.1833,1.1848,1.1853,1.1789,1.1789,1.1789,0,1.172,1.1735,1.1725,1.1739,1.1743,1.1726,1.1743,1.1745,1.1749,1.1752,1.1741,1.176,1.1759,1.1781,1.1791,1.1793,1.1798,1.1786,1.1829,1.1833,1.1837,1.1851,1.1856,1.1791,1.1791,1.1791,1.179,0,1.1761,1.1772,1.1785,1.179,1.1795,1.181,1.1803,1.181,1.1802,1.1799,1.1816,1.1816,1.1823,1.1827,1.182,1.1849,1.1843,1.1831,1.1812,1.1844,1.1857,1.1863,1.1793,1.1793,1.1792,1.1792,0,0,1.1811,1.1811,1.1816,1.1819,1.182,1.1829,1.1843,1.1851,1.1858,1.1861,1.1874,1.1887,1.1876,1.1879,1.1872,1.1884,1.1916,1.187,1.187,1.188,1.1949,1.1959,1.1966,1.1909,1.191,1.191,1.195,0,1.1846,1.1871,1.1863,1.1889,1.19,1.1885,1.1898,1.1901,1.1899,1.1908,1.1905,1.1915,1.1899,1.1901,1.1912,1.191,1.193,1.1907,1.1921,1.1922,1.1922,1.1972,1.1982,1.2019,1.1955,1.1955,1.1956,0,1.189,1.1897,1.1924,1.1925,1.1929,1.1941,1.1948,1.1957,1.196,1.1957,1.1962,1.1953,1.1968,1.1949,1.197,1.1954,1.196,1.196,1.1961,1.1962,1.1941,1.1976,1.2031,1.2037,1.1964,1.1963,1.1962,0,1.1926,1.1941,1.1959,1.1962,1.1963,1.1972,1.1973,1.1975,1.1981,1.1987,1.1991,1.1999,1.2004,1.201,1.2004,1.199,1.2026,1.2006,1.2025,1.2026,1.2034,1.2034,1.2091,1.2036,1.2036,1.2036,1.2036,0,1.1966,1.1984,1.1976,1.1987,1.2007,1.1998,1.2017,1.2017,1.2019,1.203,1.2018,1.2029,1.2019,1.203,1.2024,1.2044,1.2045,1.2044,1.2043,1.2046,1.2046,1.205,1.2047,1.2037,1.2037,1.2037,1.2037,0,1.2009,1.2004,1.2024,1.2024,1.2024,1.2039,1.2039,1.205,1.2047,1.2062,1.2065,1.2061,1.2072,1.2067,1.2078,1.2075,1.21,1.2095,1.21,1.2098,1.2118,1.2117,1.2181,1.2189,1.2128,1.2128,1.2129,0,1.2036,1.2049,1.2051,1.2058,1.206,1.2072,1.2078,1.207,1.2077,1.2082,1.2093,1.2104,1.2112,1.2132,1.2129,1.2139,1.2134,1.2156,1.2136,1.2139,1.2136,1.2136,1.2138,1.216,1.2161,1.2162,1.2162,0,1.2084,1.2081,1.2091,1.21,1.2108,1.2115,1.212,1.2127,1.2119,1.2128,1.214,1.2146,1.2159,1.2171,1.2179,1.218,1.2171,1.2169,1.2174,1.2177,1.218,1.218,1.2112,1.2167,1.2167,1.2166,1.2166,1.2166,1.212,1.2132,1.2136,1.2147,1.2151,1.2157,1.2168,1.2167,1.2177,1.2187,1.2182,1.2197,1.22,1.2211,1.2214,1.2225,1.2217,1.2224,1.2226,1.2228,1.2231,1.2178,1.2227,1.2227,1.2226,1.2226,1.2226,0,1.2169,1.2171,1.2181,1.219,1.22,1.219,1.2196,1.2204,1.2218,1.2222,1.2231,1.2246,1.2257,1.2257,1.2267,1.2277,1.2273,1.228,1.228,1.228,1.2238,1.2233,1.2283,1.2283,1.2283,1.2283,1.2283,1.2283,1.2195,1.2215,1.2213,1.2235,1.2237,1.2252,1.2256,1.2262,1.2266,1.2284,1.2293,1.2293,1.2296,1.2307,1.2317,1.2316,1.2321,1.2331,1.2329,1.2289,1.2283,1.2278,1.2273,1.2331,1.2331,1.237,1.2371,1.2371]},{"header":{"parameterUnit":"m.s-1","parameterCategory":1,"la1":30.2991,"la2":30.254,"lo1":-89.0895,"lo2":-89.0444,"dy":0.0017,"dx":0.0017,"nx":28,"ny":28,"refTime":"2024-02-07T03:00:00:Z","depth":0,"parameterNumber":3,"parameterNumberName":"V-component_of_WINDS"},"data":[0,0,0,0,0,0,0,0,0,0,0,0,0,0,0,0,0,0,0,0,0,0,0,0,0,0,0,0,0,0,0,0,0,0,0,0,0,0,0,0,0,0,0,0,0,0,0,0,0,0,0,0,0,0,0,0,0,0,-2.5593,-2.5593,0,-2.5623,-2.5623,-2.5623,-2.5619,-2.5618,-2.5618,-2.5617,-2.5647,-2.5648,-2.565,0,0,0,0,0,0,0,0,0,0,0,0,0,-2.5532,-2.5533,-2.5593,-2.5593,-2.5594,-2.5623,-2.5623,-2.5624,-2.5619,-2.5618,-2.5618,-2.5617,-2.5647,-2.5648,-2.565,0,0,0,0,0,0,0,0,0,0,0,0,0,-2.556,-2.5534,-2.5593,-2.5595,-2.5595,-2.5623,-2.5623,-2.5624,-2.5619,-2.5618,-2.5618,-2.5617,-2.5646,-2.5648,-2.565,-2.5677,0,0,-2.5656,-2.5657,0,0,0,0,0,0,0,0,-2.5558,-2.5562,-2.5594,-2.5595,-2.5595,-2.5616,-2.5613,-2.5641,-2.5619,-2.561,-2.5617,-2.5617,-2.5637,-2.564,-2.5647,-2.5678,-2.5679,-2.5656,-2.5657,-2.5658,-2.5658,0,0,0,0,0,0,0,-2.5556,-2.5561,-2.5605,-2.5595,-2.5595,-2.5594,-2.5598,-2.5618,-2.5628,-2.5611,-2.5611,-2.5614,-2.5638,-2.5645,-2.5648,-2.568,-2.5656,-2.5658,-2.5659,-2.5659,-2.5736,-2.5737,0,0,0,0,0,0,-2.5554,-2.5559,-2.5604,-2.5606,-2.5575,-2.5596,-2.56,-2.561,-2.5627,-2.5629,-2.5615,-2.5614,-2.5643,-2.5646,-2.5649,-2.5682,-2.5658,-2.566,-2.5661,-2.5735,-2.5736,-2.5737,0,0,0,0,0,0,-2.5553,-2.5558,-2.5602,-2.5582,-2.5588,-2.5598,-2.561,-2.5611,-2.5619,-2.563,-2.5632,-2.5621,-2.5642,-2.5646,-2.567,-2.5683,-2.566,-2.5662,-2.5734,-2.5735,-2.5736,-2.5748,0,0,0,0,0,0,-2.5551,-2.5558,-2.5567,-2.5583,-2.5589,-2.5623,-2.5611,-2.5612,-2.5623,-2.5622,-2.5637,-2.5638,-2.5642,-2.5667,-2.5672,-2.5685,-2.5664,-2.5733,-2.5734,-2.5736,-2.5746,-2.5749,-2.5752,0,0,0,0,0,-2.5549,-2.5569,-2.5568,-2.5573,-2.5602,-2.5624,-2.5627,-2.5631,-2.5624,-2.5634,-2.5642,-2.5638,-2.5681,-2.567,-2.5675,-2.5689,-2.5732,-2.5734,-2.5736,-2.5745,-2.5749,-2.5752,0,0,0,0,0,0,-2.5554,-2.5571,-2.557,-2.5596,-2.5609,-2.5623,-2.5636,-2.5635,-2.565,-2.5648,-2.5652,-2.5656,-2.568,-2.5687,-2.5674,-2.5717,-2.5705,-2.5709,-2.5711,-2.5714,-2.5717,-2.5715,-2.5665,0,0,0,0,0,-2.5559,-2.5575,-2.5589,-2.561,-2.5617,-2.5626,-2.5635,-2.5637,-2.565,-2.5655,-2.5665,-2.5678,-2.5694,-2.5705,-2.5721,-2.5748,-2.5752,-2.576,-2.5763,-2.5765,-2.5768,-2.5784,-2.5788,-2.5743,-2.5743,-2.5743,0,0,-2.5567,-2.5579,-2.5589,-2.5612,-2.5622,-2.5639,-2.563,-2.5648,-2.5661,-2.5658,-2.5681,-2.5689,-2.5704,-2.573,-2.5742,-2.5736,-2.5781,-2.5768,-2.577,-2.5771,-2.5786,-2.579,-2.5794,-2.5745,-2.5745,-2.5744,0,0,-2.5592,-2.5602,-2.5622,-2.5632,-2.5648,-2.5654,-2.5659,-2.5674,-2.5679,-2.5703,-2.5702,-2.5717,-2.5745,-2.5756,-2.5765,-2.5797,-2.5795,-2.5802,-2.5816,-2.5832,-2.5836,-2.5839,-2.585,-2.5854,-2.5805,-2.5805,-2.5805,0,-2.5601,-2.5627,-2.5632,-2.5651,-2.5661,-2.5661,-2.5681,-2.5691,-2.5711,-2.5718,-2.5712,-2.5749,-2.5759,-2.5788,-2.5796,-2.5803,-2.5809,-2.58,-2.5835,-2.5838,-2.5841,-2.5852,-2.5856,-2.5805,-2.5805,-2.5805,-2.5805,0,-2.5637,-2.5655,-2.5669,-2.5689,-2.5701,-2.5721,-2.5729,-2.5741,-2.5743,-2.5749,-2.5774,-2.5786,-2.5805,-2.5812,-2.5814,-2.5842,-2.5839,-2.5834,-2.5823,-2.5846,-2.5856,-2.5861,-2.5807,-2.5806,-2.5806,-2.5806,0,0,-2.5664,-2.5688,-2.5693,-2.5703,-2.5721,-2.5735,-2.5756,-2.5775,-2.5785,-2.5799,-2.5816,-2.5842,-2.5838,-2.5848,-2.5851,-2.5865,-2.589,-2.5859,-2.5859,-2.5864,-2.5923,-2.5926,-2.5931,-2.5889,-2.589,-2.5891,-2.5922,0,-2.569,-2.5725,-2.5731,-2.5762,-2.578,-2.5781,-2.5798,-2.5812,-2.5819,-2.5835,-2.5843,-2.5861,-2.5855,-2.5861,-2.5875,-2.5884,-2.5902,-2.5882,-2.5905,-2.5906,-2.5901,-2.5936,-2.5939,-2.5968,-2.5926,-2.5926,-2.5927,0,-2.5725,-2.5741,-2.5774,-2.5792,-2.5799,-2.5815,-2.5834,-2.5849,-2.5865,-2.5869,-2.5882,-2.5884,-2.5906,-2.5895,-2.5925,-2.5911,-2.5921,-2.5927,-2.5929,-2.593,-2.5917,-2.5938,-2.5977,-2.5981,-2.5933,-2.5933,-2.5932,0,-2.5741,-2.5772,-2.5795,-2.5804,-2.5825,-2.5836,-2.5845,-2.5861,-2.5872,-2.5889,-2.5897,-2.5916,-2.5926,-2.5941,-2.5948,-2.5939,-2.5978,-2.5967,-2.5982,-2.5982,-2.5989,-2.5988,-2.6029,-2.5997,-2.5997,-2.5997,-2.5996,0,-2.577,-2.579,-2.5803,-2.5818,-2.5841,-2.5848,-2.5871,-2.588,-2.5894,-2.5911,-2.5913,-2.5929,-2.5938,-2.5955,-2.5961,-2.5985,-2.599,-2.5994,-2.5996,-2.5994,-2.5993,-2.6,-2.5998,-2.5998,-2.5997,-2.5997,-2.5997,0,-2.5791,-2.5801,-2.5827,-2.5846,-2.5851,-2.5867,-2.5883,-2.5898,-2.5906,-2.5927,-2.5933,-2.5946,-2.5966,-2.5976,-2.6001,-2.6005,-2.6033,-2.6033,-2.6027,-2.6028,-2.6042,-2.6041,-2.6088,-2.6095,-2.6058,-2.6059,-2.6059,0,-2.5808,-2.5824,-2.5844,-2.5856,-2.5866,-2.5884,-2.5897,-2.5905,-2.5918,-2.5939,-2.5951,-2.5972,-2.5989,-2.6022,-2.6034,-2.6054,-2.6054,-2.607,-2.6057,-2.6055,-2.6054,-2.6053,-2.6055,-2.6072,-2.6072,-2.6072,-2.6072,0,-2.5837,-2.5842,-2.5859,-2.588,-2.5894,-2.591,-2.5926,-2.5936,-2.5947,-2.5961,-2.5983,-2.5996,-2.6023,-2.6044,-2.6065,-2.6075,-2.6076,-2.6077,-2.6081,-2.6079,-2.6075,-2.6078,-2.6033,-2.6075,-2.6075,-2.6075,-2.6074,-2.6074,-2.5857,-2.5871,-2.5888,-2.5908,-2.5922,-2.5937,-2.5952,-2.5963,-2.5981,-2.6003,-2.6008,-2.6031,-2.6048,-2.6077,-2.6088,-2.6106,-2.6103,-2.6109,-2.6111,-2.6112,-2.6113,-2.6073,-2.611,-2.611,-2.611,-2.611,-2.611,0,-2.5886,-2.5897,-2.5916,-2.5939,-2.5955,-2.5955,-2.5973,-2.5987,-2.6007,-2.6023,-2.6041,-2.6066,-2.6087,-2.6102,-2.6123,-2.6135,-2.6136,-2.6141,-2.614,-2.6142,-2.6115,-2.6109,-2.614,-2.614,-2.614,-2.614,-2.614,-2.614,-2.5903,-2.5927,-2.5934,-2.5966,-2.5978,-2.6001,-2.6011,-2.6025,-2.6039,-2.6067,-2.6085,-2.6094,-2.611,-2.6133,-2.6153,-2.6157,-2.6165,-2.6169,-2.6173,-2.6147,-2.6144,-2.6141,-2.6135,-2.6171,-2.6171,-2.6198,-2.6198,-2.6199]}]]